• In Russia
  • List of Countries
  • For 7 days
  • Water Temperature
  • Satellite Maps
  • Weather Map
  • Weather Widgets
  • user-avatar
    Login

    Hourly Weather Baimaclia

    Today, 20 August, Monday

    Time Temperature Precipitation Wind Pressure Humidity
    00:00 +23°C° 0 mm 1 mps 740 mmHg 63%
    01:00 +22°C° 0 mm 1 mps 740 mmHg 64%
    02:00 +22°C° 0 mm 1 mps 740 mmHg 68%
    03:00 +21°C° 0 mm 1 mps 740 mmHg 70%
    04:00 +21°C° 0 mm 1 mps 739 mmHg 72%
    05:00 +20°C° 0 mm 1 mps 739 mmHg 74%
    06:00 +22°C° 0 mm 1 mps 739 mmHg 69%
    07:00 +23°C° 0 mm 2 mps 740 mmHg 63%
    08:00 +25°C° 0 mm 2 mps 740 mmHg 57%
    09:00 +27°C° 0 mm 2 mps 740 mmHg 51%
    10:00 +29°C° 0 mm 2 mps 740 mmHg 45%
    11:00 +30°C° 0 mm 2 mps 740 mmHg 39%
    12:00 +31°C° 0 mm 2 mps 740 mmHg 36%
    13:00 +31°C° 0 mm 2 mps 740 mmHg 33%
    14:00 +32°C° 0 mm 2 mps 739 mmHg 31%
    15:00 +32°C° 0 mm 2 mps 739 mmHg 31%
    16:00 +31°C° 0 mm 2 mps 739 mmHg 32%
    17:00 +31°C° 0 mm 2 mps 739 mmHg 32%
    18:00 +29°C° 0 mm 2 mps 739 mmHg 34%
    19:00 +27°C° 0 mm 3 mps 739 mmHg 36%
    20:00 +25°C° 0 mm 3 mps 739 mmHg 38%
    21:00 +24°C° 0 mm 3 mps 739 mmHg 39%
    22:00 +23°C° 0 mm 2 mps 739 mmHg 39%
    23:00 +21°C° 0 mm 2 mps 739 mmHg 40%

    Tomorrow, 21 August, Tuesday

    Time Temperature Precipitation Wind Pressure Humidity
    00:00 +21°C° 0 mm 2 mps 739 mmHg 41%
    01:00 +21°C° 0 mm 1 mps 739 mmHg 43%
    02:00 +21°C° 0 mm 1 mps 739 mmHg 44%
    03:00 +21°C° 0 mm 1 mps 739 mmHg 45%
    04:00 +20°C° 0 mm 1 mps 738 mmHg 46%
    05:00 +20°C° 0 mm 1 mps 738 mmHg 47%
    06:00 +22°C° 0 mm 1 mps 739 mmHg 43%
    07:00 +24°C° 0 mm 1 mps 739 mmHg 40%
    08:00 +26°C° 0 mm 1 mps 739 mmHg 37%
    09:00 +28°C° 0 mm 1 mps 739 mmHg 34%
    10:00 +30°C° 0 mm 1 mps 739 mmHg 32%
    11:00 +31°C° 0 mm 1 mps 739 mmHg 30%
    12:00 +32°C° 0 mm 1 mps 739 mmHg 29%
    13:00 +33°C° 0 mm 1 mps 739 mmHg 28%
    14:00 +33°C° 0 mm 1 mps 738 mmHg 27%
    15:00 +33°C° 0 mm 1 mps 738 mmHg 27%
    16:00 +34°C° 0 mm 2 mps 738 mmHg 28%
    17:00 +34°C° 0 mm 2 mps 738 mmHg 28%
    18:00 +31°C° 0 mm 2 mps 738 mmHg 32%
    19:00 +29°C° 0 mm 2 mps 738 mmHg 36%
    20:00 +27°C° 0 mm 2 mps 739 mmHg 40%
    21:00 +27°C° 0 mm 2 mps 739 mmHg 42%
    22:00 +26°C° 0 mm 2 mps 739 mmHg 45%
    23:00 +25°C° 0 mm 3 mps 739 mmHg 48%

    Day after tomorrow, 22 August, Wednesday

    Time Temperature Precipitation Wind Pressure Humidity
    00:00 +24°C° 0 mm 3 mps 739 mmHg 54%
    01:00 +24°C° 0 mm 3 mps 740 mmHg 59%
    02:00 +22°C° 0 mm 4 mps 740 mmHg 64%
    03:00 +22°C° 0 mm 4 mps 740 mmHg 68%
    04:00 +21°C° 0 mm 4 mps 740 mmHg 72%
    05:00 +21°C° 0 mm 5 mps 740 mmHg 77%
    06:00 +22°C° 0 mm 5 mps 740 mmHg 70%
    07:00 +23°C° 0 mm 5 mps 740 mmHg 64%
    08:00 +25°C° 0 mm 5 mps 741 mmHg 58%
    09:00 +26°C° 0 mm 5 mps 741 mmHg 51%
    10:00 +28°C° 0 mm 5 mps 741 mmHg 45%
    11:00 +29°C° 0 mm 6 mps 741 mmHg 38%
    12:00 +30°C° 0 mm 5 mps 741 mmHg 36%
    13:00 +32°C° 0 mm 5 mps 741 mmHg 34%
    14:00 +32°C° 0 mm 5 mps 741 mmHg 32%
    15:00 +32°C° 0 mm 5 mps 741 mmHg 32%
    16:00 +32°C° 0 mm 5 mps 741 mmHg 32%
    17:00 +32°C° 0 mm 4 mps 740 mmHg 31%
    18:00 +29°C° 0 mm 4 mps 741 mmHg 35%
    19:00 +27°C° 0 mm 4 mps 741 mmHg 38%
    20:00 +25°C° 0 mm 3 mps 741 mmHg 42%
    21:00 +23°C° 0 mm 4 mps 741 mmHg 45%
    22:00 +22°C° 0 mm 4 mps 741 mmHg 48%
    23:00 +21°C° 0 mm 4 mps 742 mmHg 50%

    23 August, Thursday

    Time Temperature Precipitation Wind Pressure Humidity
    00:00 +21°C° 0 mm 4 mps 742 mmHg 53%
    01:00 +20°C° 0 mm 3 mps 742 mmHg 55%
    02:00 +19°C° 0 mm 3 mps 742 mmHg 57%
    03:00 +19°C° 0 mm 3 mps 742 mmHg 58%
    04:00 +18°C° 0 mm 3 mps 742 mmHg 59%
    05:00 +18°C° 0 mm 3 mps 742 mmHg 60%
    06:00 +19°C° 0 mm 3 mps 742 mmHg 56%
    07:00 +21°C° 0 mm 3 mps 742 mmHg 52%
    08:00 +22°C° 0 mm 3 mps 742 mmHg 47%
    09:00 +25°C° 0 mm 3 mps 742 mmHg 43%
    10:00 +26°C° 0 mm 4 mps 742 mmHg 39%
    11:00 +28°C° 0 mm 4 mps 742 mmHg 34%
    12:00 +29°C° 0 mm 4 mps 741 mmHg 32%
    13:00 +29°C° 0 mm 4 mps 741 mmHg 30%
    14:00 +30°C° 0 mm 3 mps 741 mmHg 28%
    15:00 +30°C° 0 mm 4 mps 740 mmHg 28%
    16:00 +30°C° 0 mm 4 mps 740 mmHg 28%
    17:00 +30°C° 0 mm 4 mps 740 mmHg 28%
    18:00 +28°C° 0 mm 3 mps 740 mmHg 32%
    19:00 +26°C° 0 mm 3 mps 740 mmHg 36%
    20:00 +22°C° 0 mm 3 mps 740 mmHg 40%
    21:00 +23°C° 0 mm 2 mps 740 mmHg 42%
    22:00 +21°C° 0 mm 2 mps 740 mmHg 43%
    23:00 +21°C° 0 mm 1 mps 740 mmHg 45%

    24 August, Friday

    Time Temperature Precipitation Wind Pressure Humidity
    00:00 +20°C° 0 mm 1 mps 740 mmHg 45%
    01:00 +20°C° 0 mm 1 mps 740 mmHg 46%
    02:00 +19°C° 0 mm 1 mps 739 mmHg 46%
    03:00 +19°C° 0 mm 1 mps 739 mmHg 47%
    04:00 +18°C° 0 mm 1 mps 739 mmHg 49%
    05:00 +18°C° 0 mm 1 mps 739 mmHg 50%
    06:00 +19°C° 0 mm 2 mps 739 mmHg 48%
    07:00 +21°C° 0 mm 2 mps 739 mmHg 46%
    08:00 +24°C° 0 mm 2 mps 740 mmHg 44%
    09:00 +25°C° 0 mm 2 mps 739 mmHg 40%
    10:00 +27°C° 0 mm 2 mps 739 mmHg 36%
    11:00 +29°C° 0 mm 3 mps 739 mmHg 32%
    12:00 +30°C° 0 mm 3 mps 739 mmHg 30%
    13:00 +30°C° 0 mm 3 mps 738 mmHg 27%
    14:00 +31°C° 0 mm 3 mps 738 mmHg 25%
    15:00 +31°C° 0 mm 3 mps 738 mmHg 24%
    16:00 +31°C° 0 mm 3 mps 737 mmHg 24%
    17:00 +31°C° 0 mm 3 mps 737 mmHg 23%
    18:00 +28°C° 0 mm 3 mps 737 mmHg 26%
    19:00 +26°C° 0 mm 3 mps 737 mmHg 28%
    20:00 +24°C° 0 mm 3 mps 737 mmHg 31%
    21:00 +23°C° 0 mm 2 mps 737 mmHg 32%
    22:00 +21°C° 0 mm 2 mps 737 mmHg 34%
    23:00 +21°C° 0 mm 1 mps 737 mmHg 35%

    25 August, Saturday

    Time Temperature Precipitation Wind Pressure Humidity
    00:00 +21°C° 0 mm 1 mps 736 mmHg 36%
    01:00 +20°C° 0 mm 1 mps 736 mmHg 38%
    02:00 +20°C° 0 mm 1 mps 736 mmHg 39%
    03:00 +20°C° 0 mm 1 mps 736 mmHg 39%
    04:00 +19°C° 0 mm 1 mps 736 mmHg 40%
    05:00 +19°C° 0 mm 1 mps 736 mmHg 40%
    06:00 +20°C° 0 mm 2 mps 736 mmHg 38%
    07:00 +23°C° 0 mm 2 mps 736 mmHg 36%
    08:00 +25°C° 0 mm 2 mps 736 mmHg 34%
    09:00 +27°C° 0 mm 2 mps 736 mmHg 32%
    10:00 +28°C° 0 mm 2 mps 736 mmHg 30%
    11:00 +30°C° 0 mm 2 mps 735 mmHg 29%
    12:00 +31°C° 0 mm 2 mps 735 mmHg 27%
    13:00 +32°C° 0 mm 2 mps 735 mmHg 25%
    14:00 +34°C° 0 mm 2 mps 734 mmHg 23%
    15:00 +34°C° 0 mm 2 mps 734 mmHg 23%
    16:00 +34°C° 0 mm 2 mps 734 mmHg 24%
    17:00 +34°C° 0 mm 2 mps 734 mmHg 24%
    18:00 +30°C° 0 mm 2 mps 734 mmHg 31%
    19:00 +28°C° 0 mm 2 mps 734 mmHg 38%
    20:00 +26°C° 0 mm 3 mps 734 mmHg 44%
    21:00 +25°C° 0 mm 2 mps 734 mmHg 51%
    22:00 +24°C° 0 mm 2 mps 734 mmHg 58%
    23:00 +23°C° 0 mm 2 mps 734 mmHg 65%
    Show more